Flag for Afghanistan Weather past 2 weeks in Jalalabad, Afghanistan

Now
81 °F

Scattered clouds.


Feels Like: 83 °F
Forecast: 68 / 101 °F
Wind: 5 mph from Southwest

Location: Peshawar Airport

Current Time: May 7, 2015 at 8:06:09 AM

Latest Report: May 7, 2015 at 7:30 AM


Visibility: 2 mi

Pressure: 29.74 "Hg

Humidity: 62%

Dew point: 66 °F

Location of JalalabadLocation

Historic Weather in Jalalabad — Graph

°F

Jalalabad temperature yesterday

Maximum temperature yesterday: 99 °F (at 12:30 PM)
Minimum temperature yesterday: 72 °F (at 5:30 AM)
Average temperature yesterday: 86 °F

Past Weeks' High & Low Weather Summary

 TemperatureHumidityPressure
High99 °F (Apr 24, 2:30 PM)94% (Apr 27, 8:30 AM)29.95 "Hg (Apr 27, 8:30 AM)
Low64 °F (Apr 30, 5:30 AM)22% (Apr 22, 3:30 PM)29.62 "Hg (May 6, 3:30 PM)
Average80 °F53%29.78 "Hg
* Reported Apr 22 6:30 AM — May 7 6:30 AM, Jalalabad, Weather by CustomWeather, © 2015

Note: Actual official high and low records may vary slightly from our data, if they occured in-between our weather recording intervals... More about our weather records

Advertising

Jalalabad weather history for previous 24 hours

 ConditionsComfort  
Time TempWeatherWind HumidityBarometerVisibility
6:30 AM
Thu, May 7
81 °FScattered clouds.5 mph62%29.74 "Hg2 mi
5:30 AM77 °FScattered clouds.5 mph69%29.71 "Hg2 mi
4:29 AM77 °FPassing clouds.5 mph69%29.68 "Hg2 mi
3:30 AM77 °FPassing clouds.5 mph61%29.68 "Hg2 mi
2:30 AM79 °FPassing clouds.No wind54%29.68 "Hg2 mi
1:30 AM79 °FPassing clouds.No wind54%29.68 "Hg2 mi
12:30 AM81 °FPassing clouds.7 mph51%29.68 "Hg2 mi
11:30 PM
Wed, May 6
82 °FPassing clouds.5 mph55%29.68 "Hg2 mi
10:30 PM82 °FPassing clouds.No wind51%29.68 "Hg2 mi
9:30 PM84 °FPassing clouds.No wind48%29.68 "Hg2 mi
8:30 PM84 °FPassing clouds.No wind48%29.68 "Hg2 mi
7:30 PM86 °FPassing clouds.5 mph43%29.65 "Hg2 mi
6:30 PM90 °FPassing clouds.5 mph38%29.62 "Hg2 mi
5:30 PM93 °FScattered clouds.5 mph32%29.62 "Hg2 mi
4:30 PM97 °FScattered clouds.5 mph30%29.62 "Hg2 mi
3:30 PM99 °FHaze.5 mph27%29.62 "Hg3 mi
2:30 PM99 °FScattered clouds.5 mph29%29.65 "Hg3 mi
1:30 PM99 °FScattered clouds.5 mph31%29.65 "Hg3 mi
12:30 PM99 °FHaze.9 mph31%29.68 "Hg3 mi
11:30 AM97 °FHaze.7 mph32%29.68 "Hg3 mi
10:30 AM95 °FScattered clouds.5 mph36%29.71 "Hg2 mi
9:30 AM93 °FScattered clouds.5 mph39%29.71 "Hg2 mi
8:30 AM86 °FScattered clouds.5 mph49%29.71 "Hg2 mi
Weather by CustomWeather, © 2015

See weather overviewHow to use our weather pages